Location: Prairie Siding
(42.3475°N, 82.3249°W)
Time: 08:37:42
(UTC-04:00)

Tiangong 2 - Visible Passes

Search period start: 25 May 2018 00:00
Search period end: 04 June 2018 00:00
Orbit: 382 x 385 km, 42.8° (Epoch: 25 May)

Date Brightness Start Highest point End Pass type
(mag) Time Alt. Az. Time Alt. Az. Time Alt. Az.
25 May 1.0 22:19:40 10° W 22:22:48 84° N 22:25:10 17° E visible
25 May 3.5 23:56:25 10° W 23:57:22 18° W 23:57:22 18° W visible
26 May 1.0 22:56:36 10° W 22:59:45 85° N 23:00:16 60° E visible
27 May 1.1 21:56:46 10° W 21:59:55 80° N 22:03:05 10° E visible
27 May 2.6 23:33:31 10° W 23:35:16 29° W 23:35:16 29° W visible
28 May 0.9 22:33:40 10° W 22:36:50 79° SSW 22:38:02 34° ESE visible
29 May 1.1 21:33:50 10° W 21:37:00 85° N 21:40:09 10° E visible
29 May 2.2 23:10:39 10° W 23:12:57 33° SW 23:12:57 33° SW visible
30 May 1.2 22:10:44 10° W 22:13:51 57° SSW 22:15:40 22° SE visible
31 May 2.5 22:47:53 10° W 22:50:30 24° SSW 22:50:35 24° SSW visible
01 Jun 1.9 21:47:49 10° W 21:50:47 38° SSW 21:53:20 13° SE visible
02 Jun 3.2 22:25:26 10° WSW 22:27:18 15° SSW 22:28:17 13° SSW visible
